EHI
0 0 0 0 0 0 0 0 0 0 0 0 0 0 0 0 0 0 0 0 0 0 0 0 0 0 0 0 0 0 0 0 0 0 0 0 0 0 0 0 0 0 0 0
0 0 0 0 0 0 0 0 0 0 0 0 0 0 0 0 0 0 0 0 0 0 0 0 0 0 0 0 0 0 0 0 0 0 0 0 0 0 0 0 0 0 0 0
0 0 0 0 0 0 0 0 0 0 0 0 0 0 0 0 0 0 0 0 0 0 0 0 0 0 0 0 0 0 0 0 0 0 0 0 0 0 0 0 0 0 0 0
0 0 0 0 0 0 0 0 0 0 0 0 0 0 0 0 0 0 0 0 0 0 0 0 0 0 0 0 0 0 0 0 0 0 0 0 0 0 0 0 0 0 0 0
0 0 0 0 0 0 0 0 0 0 0 0 0 0 0 0 0 0 0 0 0 0 0 0 0 0 0 0 0 0 0 0 0 0 0 0 0 0 0 0 0 0 0 0
0 0 0 0 0 0 0 0 0 0 0 0 0 0 0 0 0 0 0 0 0 0 0 0 0 0 0 0 0 0 0 0 0 0 0 0 0 0 0 0 0 0 0 0
0 0 0 0 0 0 0 0 0 0 0 0 0 0 0 0 0 0 0 0 0 0 0 0 0 0 0 0 0 0 0 0 0 0 0 0 0 0 0 0 0 0 0 0
0 0 0 0 0 0 0 0 0 0 0 0 0 0 0 0 0 0 0 0 0 0 0 0 0 0 0 0 0 0 0 0 0 0 0 0 0 0 0 0 0 0 0 0
0 0 0 0 0 0 0 0 0 0 0 0 0 0 0 0 0 0 0 0 0 0 0 0 0 0 0 0 0 0 0 0 0 0 0 0 0 0 0 0 0 0 0 0
0 0 0 0 0 0 0 0 0 0 0 0 0 0 0 0 0 0 0 0 0 0 0 0 0 0 0 0 0 0 0 0 0 0 0 0 0 0 0 0 0 0 0 0
0 0 0 0 0 0 0 0 0 0 0 0 0 0 0 0 0 0 0 0 0 0 0 0 0 0 0 0 0 0 0 0 0 0 0 0 0 0 0 0 0 0 0 0
0 0 0 0 0 0 0 0 0 0 0 0 0 0 0 0 0 0 0 0 0 0 0 0 0 0 0 0 0 0 0 0 0 0 0 0 0 0 0 0 0 0 0 0
0 0 0 0 0 0 0 0 0 0 0 0 0 0 0 0 0 0 0 0 0 0 0 0 0 0 0 0 0 0 0 0 0 0 0 0 0 0 0 0 0 0 0 0
0 0 0 0 0 0 0 0 0 0 0 0 0 0 0 0 0 0 0 0 0 0 0 0 0 0 0 0 0 0 0 0 0 0 0 0 0 0 0 0 0 0 0 0
0 0 0 0 0 0 0 0 0 0 0 0 0 0 0 0 0 0 0 0 0 0 0 0 0 0 0 0 0 0 0 0 0 0 0 0 0 0 0 0 0 0 0 0
0 0 0 0 0 0 0 0 0 0 0 0 0 0 0 0 0 0 0 0 0 0 0 0 0 0 0 0 0 0 0 0 0 0 0 0 0 0 0 0 0 0 0 0
0 0 0 0 0 0 0 0 0 0 0 0 0 0 0 0 0 0 0 0 0 0 0 0 0 0 0 0 0 0 0 0 0 0 0 0 0 0 0 0 0 0 0 0
0 0 0 0 0 0 0 0 0 0 0 0 0 0 0 0 0 0 0 0 0 0 0 0 0 0 0 0 0 0 0 0 0 0 0 0 0 0 0 0 0 0 0 0
0 0 0 0 0 0 0 0 0 0 0 0 0 0 0 0 0 0 0 0 0 0 0 0 0 0 0 0 0 0 0 0 0 0 0 0 0 0 0 0 0 0 0 0
0 0 0 0 0 0 0 0 0 0 0 0 0 0 0 0 0 0 0 0 0 0 0 0 0 0 0 0 0 0 0 0 0 0 0 0 0 0 0 0 0 0 0 0
0 0 0 0 0 0 0 0 0 0 0 0 0 0 0 0 0 0 0 0 0 0 0 0 0 0 0 0 0 0 0 0 0 0 0 0 0 0 0 0 0 0 0 0
0 0 0 0 0 0 0 0 0 0 0 0 0 0 0 0 0 0 0 0 0 0 0 0 0 0 0 0 0 0 0 0 0 0 0 0 0 0 0 0 0 0 0 0
0 0 0 0 0 0 0 0 0 0 0 0 0 0 0 0 0 0 0 0 0 0 0 0 0 0 0 0 0 0 0 0 0 0 0 0 0 0 0 0 0 0 0 0
0 0 0 0 0 0 0 0 0 0 0 0 0 0 0 0 0 0 0 0 0 0 0 0 0 0 0 0 0 0 0 0 0 0 0 0 0 0 0 0 0 0 0 0
0 0 0 0 0 0 0 0 0 0 0 0 0 0 0 0 0 0 0 0 0 0 0 0 0 0 0 0 0 0 0 0 0 0 0 0 0 0 0 0 0 0 0 0
0 0 0 0 0 0 0 0 0 0 0 0 0 0 0 0 0 0 0 0 0 0 0 0 0 0 0 0 0 0 0 0 0 0 0 0 0 0 0 0 0 0 0 0
0 0 0 0 0 0 0 0 0 0 0 0 0 0 0 0 0 0 0 0 0 0 0 0 0 0 0 0 0 0 0 0 0 0 0 0 0 0 0 0 0 0 0 0
Wind_Speed
7 6 4 8 9 7 9 9 9 9 8 9 6 5 4 3 2 3 3 4 4 4 4 4 4 5 5 5 5 5 5 6 6 7 6 7 7 7 7 7 8 8 8 8
5 5 5 9 10 9 10 8 9 8 10 7 3 1 1 2 2 3 4 5 4 4 5 5 5 6 6 6 5 5 5 6 6 7 7 7 7 7 7 7 7 8 8 8
4 3 4 8 8 7 5 5 6 9 9 3 2 3 3 3 2 3 4 5 5 5 5 5 5 6 6 6 6 5 5 6 6 6 7 7 8 8 7 7 7 8 8 8
2 2 7 7 1 4 4 4 5 4 3 3 3 3 3 2 2 3 4 4 4 4 5 5 5 5 5 6 6 6 6 6 6 6 7 7 7 8 7 7 7 7 8 8
2 3 9 6 2 3 4 4 3 4 4 2 1 1 2 2 1 3 3 4 4 4 5 5 6 6 6 5 5 6 6 6 6 7 7 7 8 8 7 7 7 7 8 8
3 4 8 5 1 0 2 4 2 3 3 2 1 2 4 2 3 3 3 3 4 4 4 5 6 6 5 5 5 6 7 7 7 7 7 7 8 8 7 7 7 8 8 7
5 6 10 4 1 2 3 6 1 2 3 2 3 5 4 3 3 3 3 4 4 4 5 5 6 5 5 5 6 7 7 7 7 7 6 6 6 6 6 7 7 7 8 8
5 6 10 2 4 5 6 1 1 1 2 3 3 3 3 3 3 4 4 5 5 4 5 5 5 5 6 6 6 6 6 7 7 7 6 6 6 6 6 6 6 6 6 7
9 8 2 3 4 3 1 1 1 1 1 2 2 3 3 3 3 4 4 4 4 4 5 5 5 5 6 7 6 6 7 7 7 7 6 6 5 6 6 5 5 5 5 6
4 6 3 2 2 1 0 1 1 1 1 1 2 3 3 3 4 4 4 4 4 5 5 6 6 6 5 7 6 6 6 7 7 6 6 5 5 5 5 5 5 5 6 6
4 4 2 2 3 3 1 1 1 1 1 1 2 2 3 3 4 4 4 4 4 4 5 6 6 6 7 6 5 5 6 6 6 6 6 5 5 5 6 5 6 7 5 5
6 5 4 4 2 2 2 2 2 1 1 1 2 3 3 3 3 3 4 4 5 5 6 6 6 7 6 6 5 5 6 6 5 5 5 5 5 6 9 9 12 12 12 10
4 2 3 2 1 1 2 2 2 2 2 2 2 2 3 3 3 3 4 4 5 6 6 6 6 7 7 6 6 5 5 6 5 5 5 5 5 6 7 9 11 12 12 12
2 1 1 2 2 2 2 1 1 1 1 2 2 2 2 3 3 4 4 5 5 5 5 6 6 6 7 6 6 6 6 7 6 5 5 5 5 5 5 6 7 7 9 12
2 3 3 2 1 1 1 1 0 1 2 2 2 2 2 3 4 5 5 5 5 5 5 5 6 7 6 6 6 6 6 5 4 4 5 5 5 5 5 6 6 6 6 8
1 1 1 2 2 2 1 1 2 3 2 2 3 3 3 3 4 4 4 4 4 6 6 6 6 6 6 6 6 5 5 9 8 5 5 5 5 5 5 5 5 5 6 6
2 2 3 3 3 3 3 3 3 3 3 3 4 3 3 3 4 4 5 4 4 5 5 5 6 7 6 6 5 4 4 6 9 6 4 5 5 5 5 5 5 5 6 7
4 4 4 4 4 4 4 3 3 3 3 3 3 3 3 3 4 5 5 5 5 5 5 5 6 6 6 6 5 4 4 4 4 5 4 5 5 4 4 5 5 6 6 7
2 2 2 3 3 3 3 3 2 2 2 2 2 3 4 4 4 5 5 4 5 5 5 6 10 7 6 7 7 3 4 4 5 4 4 7 6 4 4 5 5 5 6 6
1 1 1 1 1 1 2 2 2 2 2 2 2 3 3 4 4 4 4 4 4 4 5 7 6 5 6 6 7 3 3 4 4 4 4 4 5 5 5 5 5 5 5 5
1 1 1 1 1 1 1 1 2 2 3 2 2 3 4 4 4 3 3 4 5 5 5 8 5 5 5 6 5 3 3 3 4 4 4 4 5 5 5 5 5 5 5 5
1 1 1 1 1 1 2 1 2 2 2 2 3 3 3 4 4 4 4 4 5 8 6 4 4 7 8 6 2 3 3 4 4 4 4 4 4 5 5 5 5 5 5 5
1 1 1 1 1 1 2 2 2 2 2 3 3 3 4 4 3 3 4 4 4 8 5 4 7 11 10 4 3 3 4 4 4 4 4 4 4 4 5 5 5 5 5 5
1 1 1 1 1 1 2 3 3 2 3 3 3 3 3 3 3 3 4 7 8 9 4 7 10 10 8 3 3 3 4 4 4 4 4 4 4 4 4 4 5 5 5 6
1 1 1 1 1 1 2 3 3 3 3 3 3 3 3 3 3 4 4 4 7 7 4 6 10 9 5 3 3 4 4 4 5 4 3 4 4 4 4 4 4 5 5 5
1 1 1 2 2 2 2 2 2 3 3 3 4 3 3 2 3 3 3 4 5 7 5 4 4 6 4 4 4 4 4 5 5 4 4 5 5 5 5 5 6 5 5 5
2 2 2 2 2 2 2 2 2 3 3 3 4 4 3 3 3 3 4 4 4 4 4 4 4 4 4 4 4 4 4 4 4 4 4 4 4 5 5 5 5 5 5 5
Wind_Direction
257 267 247 247 249 224 216 216 223 245 242 255 251 240 244 258 283 303 312 309 299 301 302 307 311 311 307 301 305 307 305 304 301 301 301 303 306 304 304 305 304 301 299 297
275 272 269 269 260 240 234 231 236 254 265 265 263 237 269 268 277 296 303 307 306 309 310 309 310 309 312 304 300 302 299 298 302 306 306 305 305 305 307 305 304 304 301 298
267 309 332 272 243 214 211 211 202 229 244 260 275 257 249 249 252 275 293 304 307 306 302 302 301 302 301 300 299 299 298 300 303 305 306 306 307 307 304 303 304 303 301 299
264 354 250 247 219 190 197 237 220 227 249 242 252 261 250 217 223 273 296 303 301 300 303 301 299 301 300 300 304 299 298 300 304 307 305 305 305 304 302 302 301 300 301 300
183 251 273 285 252 178 190 262 234 226 253 281 321 321 273 230 251 273 281 288 288 291 295 301 304 306 307 305 309 307 303 302 303 303 303 304 304 303 303 302 302 301 300 300
173 224 252 256 227 165 101 276 251 201 234 249 87 280 269 300 319 311 313 310 308 308 310 310 309 312 310 308 310 308 308 304 299 298 298 298 298 299 301 300 300 303 304 303
203 234 261 255 211 113 179 254 236 194 211 201 209 229 265 304 313 317 317 318 321 321 319 313 314 320 314 310 305 303 309 309 304 299 295 293 295 299 300 302 303 303 303 305
181 213 252 190 135 182 222 255 190 207 213 219 242 267 292 305 311 320 323 324 326 325 321 320 323 326 320 314 309 311 312 311 308 304 302 307 301 302 303 304 303 304 306 309
195 214 234 161 181 209 188 197 232 231 251 232 256 277 300 303 304 311 315 317 320 319 319 323 326 325 315 311 312 315 314 312 312 313 308 306 302 304 306 307 307 309 311 312
238 256 245 219 231 284 246 212 242 254 260 237 253 280 295 301 309 312 316 318 320 323 322 322 324 320 308 309 313 313 312 312 316 317 315 312 311 310 308 309 308 308 309 310
246 268 294 265 239 237 251 226 258 303 266 243 249 282 285 292 302 306 315 318 318 317 314 313 317 317 318 318 314 312 311 313 317 318 314 315 315 313 312 303 306 310 306 305
231 222 207 239 235 217 207 225 224 228 276 279 253 264 280 285 286 293 304 311 316 315 314 313 317 317 320 321 319 315 316 318 317 317 317 319 320 321 325 325 324 324 322 319
226 235 211 233 248 211 213 228 227 220 232 262 273 264 270 280 287 298 307 311 309 309 310 312 315 317 320 323 323 318 310 312 313 318 319 318 319 322 324 330 334 335 333 332
209 147 226 240 240 242 225 227 217 245 259 257 270 283 284 288 296 302 304 304 306 309 310 312 315 316 317 320 322 320 315 315 317 312 313 314 316 318 319 323 326 329 333 336
248 212 213 225 221 239 211 172 225 280 291 298 290 287 288 292 297 300 303 310 316 315 313 316 316 315 318 321 324 321 318 315 315 314 316 316 316 319 320 323 322 322 327 335
263 225 182 192 231 251 256 232 243 264 274 281 285 289 288 287 292 300 306 311 313 312 312 313 311 313 318 320 321 321 317 321 326 325 323 323 321 321 321 323 324 325 328 330
187 227 228 242 252 254 251 245 241 252 261 267 275 287 297 303 306 307 309 310 304 300 302 307 311 316 319 320 320 318 316 318 325 327 324 321 320 320 322 323 322 323 323 326
219 226 221 221 234 246 258 257 247 250 256 264 279 286 287 288 291 297 304 312 314 312 311 313 315 319 322 322 322 316 313 314 317 319 320 320 321 324 325 323 323 323 323 327
232 227 230 234 233 230 240 246 247 253 264 268 269 271 274 277 282 291 300 307 308 307 307 308 320 329 320 316 323 311 313 315 317 318 318 323 328 324 322 322 322 322 323 327
297 274 252 253 251 229 244 253 249 260 265 258 263 277 285 288 290 295 297 289 273 276 291 309 319 317 312 309 321 315 313 312 315 317 320 320 320 319 318 319 321 321 322 326
308 297 288 278 291 292 259 245 243 265 278 267 259 269 279 287 288 286 291 297 297 298 305 317 322 310 305 315 326 323 316 313 315 314 315 315 316 316 316 318 320 321 322 324
301 288 288 293 305 314 306 282 260 268 280 281 279 278 285 292 296 294 278 275 293 311 317 307 305 308 321 335 337 326 317 313 310 309 308 309 311 312 313 315 315 315 317 318
328 315 300 292 290 298 308 296 277 269 270 274 278 282 286 289 289 293 300 298 301 311 318 304 311 321 335 348 331 319 312 309 306 304 304 304 305 307 307 307 308 310 311 313
348 336 321 323 344 331 310 306 305 294 282 280 278 279 285 296 295 277 280 303 313 316 314 312 321 327 338 337 315 310 306 302 298 296 298 301 302 302 300 300 302 304 306 310
352 345 346 347 330 303 298 310 318 314 312 308 303 296 287 278 282 294 296 300 309 317 315 315 321 326 329 308 303 300 298 295 296 302 302 300 299 299 296 294 295 298 301 303
345 334 319 304 296 298 302 307 310 312 316 317 315 309 305 303 297 297 299 300 302 314 315 305 307 312 308 302 298 297 295 300 307 305 296 295 295 296 295 297 298 297 297 297
351 348 344 337 332 321 310 306 306 307 308 303 303 309 313 314 312 310 309 308 306 306 304 304 304 302 300 299 298 296 295 295 295 294 293 291 291 291 292 292 293 293 294 294